weather.gov     
National Weather Service

Regional Weather Roundup
NWS Homepage
This page is being discontinued on March 12, 2014.
The same data is available at this site. Please update your bookmarks.
Thank you, and we apologize for the inconvenience.
Please send an email to SR-SRH.Webmaster@noaa.gov with any concerns.


Current Version
Previous Version:    01  02  03  04  05  06  07  08  09  10  11  12  13  14  15  16  17  18  19  20  21  22  23  24  25  26  27  28  29  30  
   31  32  33  34  35  36  37  38  39  40  41  42  43  44  45  46  47  48  49  50  51  52  53  54  55  56  57  58  59  60  
[Printable]
190
ASUS44 KFWD 161515
RWRTX
NORTH TEXAS HOURLY WEATHER ROUNDUP
NATIONAL WEATHER SERVICE FORT WORTH TX
1000 AM CDT TUE SEP 16 2014

NOTE: "FAIR" INDICATES FEW OR NO CLOUDS BELOW 12,000 FEET WITH NO
SIGNIFICANT WEATHER AND/OR OBSTRUCTIONS TO VISIBILITY.

TXZ118-119-161600-
DALLAS/FORT WORTH METROPLEX

CITY           SKY/WX    TMP DP  RH WIND       PRES   REMARKS
DFW AIRPORT    PTSUNNY   82  71  69 VRB3      30.12S
DALLAS LOVE    PTSUNNY   80  71  74 E5        30.13R
FTW MEACHAM    PTSUNNY   80  69  69 E5        30.13R
DAL-EXECUTIVE  CLOUDY    81  70  69 NE5       30.13R
FTW-ALLIANCE   PTSUNNY   80  69  69 E5        30.12S
FTW-NAS-JRB    PTSUNNY   84  69  60 CALM      30.17R
FTW-SPINKS     SUNNY     79  70  73 CALM      30.15R
ARLINGTON      PTSUNNY   79  69  71 CALM      30.13R
GRAND PRAIRIE  SUNNY     79  70  73 MISG      30.14R
ADDISON        PTSUNNY   79  70  73 E5        30.14R
MESQUITE       SUNNY     79  72  78 CALM      30.13R
LANCASTER      CLOUDY    80  69  69 E5        30.13S
$$

TXZ091>094-102>105-117-120-121-131>134-161600-
NORTH CENTRAL TEXAS

CITY           SKY/WX    TMP DP  RH WIND       PRES   REMARKS
SHRMAN/DENISON PTSUNNY   78  70  77 CALM      30.16R
GAINESVILLE    MOSUNNY   78  70  74 CALM      30.16S
BOWIE          CLOUDY    78  70  76 CALM      30.15S
BRIDGEPORT     CLOUDY    77  67  71 CALM      30.16R
DECATUR        PTSUNNY   78  68  72 CALM      30.15S
DENTON         PTSUNNY   80  69  69 SE5       30.13S
MCKINNEY       PTSUNNY   77  71  82 E5        30.14R
GREENVILLE     PTSUNNY   79  70  73 E3        30.14S
ROCKWALL       CLOUDY    78  72  81 NE3       30.13R
TERRELL        CLOUDY    80  73  79 E6        30.13R
WAXAHACHIE     CLOUDY    80  69  69 E3        30.14S
CLEBURNE       MOSUNNY   81  73  78 E6        30.15S
GRANBURY       PTSUNNY   81  70  69 CALM      30.15R
$$

TXZ083>090-098>101-113>116-127>130-139>142-154-155-161600-
WESTERN NORTH TEXAS

CITY           SKY/WX    TMP DP  RH WIND       PRES   REMARKS
WICHITA FALLS  CLOUDY    76  70  82 E6        30.14S
WF-KICKAPOO    CLOUDY    77  69  76 CALM      30.15S
VERNON         CLOUDY    77  69  75 SE3       30.15S
ABILENE        CLOUDY    76  68  76 CALM      30.17S
ABILENE-DYESS  CLOUDY    77  66  67 S3        30.16S
BRECKENRIDGE   CLOUDY    79  66  65 CALM      30.15S HAZE
GRAHAM         PTSUNNY   80  66  61 S5        30.13S
MINERAL WELLS    N/A    N/A N/A N/A MISG      30.13R
STEPHENVILLE   CLOUDY    78  69  74 S3        30.17S
COMANCHE         N/A     75  70  85 CALM      30.16S
BROWNWOOD      CLOUDY    75  68  78 CALM      30.16S
COLEMAN        CLOUDY    75  67  77 SE3       30.17S
BRADY            N/A     73  72  94 CALM      30.16R
$$

TXZ143>147-156>162-174-175-161600-
CENTRAL TEXAS

CITY           SKY/WX    TMP DP  RH WIND       PRES   REMARKS
WACO           CLOUDY    79  72  79 CALM      30.12R
WACO-TSTC      SUNNY     77  73  88 CALM      30.12
WACO-MCGREGOR  PTSUNNY   79  70  73 CALM      30.14R
HILLSBORO      MOSUNNY   82  71  68 E5        30.13S
CORSICANA      MOSUNNY   81  72  74 E7        30.12S
MEXIA          PTSUNNY   78  74  86 CALM      30.11S
HEARNE           N/A     80  74  83 CALM      30.10S
CAMERON        MOSUNNY   82  74  77 CALM      30.10S
TEMPLE         PTSUNNY   81  70  69 CALM      30.11S
KILLEEN        PTSUNNY   81  72  74 SE3       30.12S
KILLEEN-SKYLRK PTSUNNY   79  70  73 NE3       30.12S
FORT HOOD      PTSUNNY   82  73  74 E6        30.12S
GATESVILLE     PTSUNNY   77  72  83 CALM      30.15S
HAMILTON       CLOUDY    80  71  73 CALM      30.16R
LAMPASAS       CLOUDY    76  72  89 S3        30.13S
$$

TXZ095>097-106>112-122>126-135>138-148>153-164>167-161600-
EAST TEXAS

CITY           SKY/WX    TMP DP  RH WIND       PRES   REMARKS
PARIS          PTSUNNY   75  64  69 SE5       30.16R
SULPHUR SPRNGS PTSUNNY   78  71  80 E5        30.16S
MOUNT PLEASANT PTSUNNY   78  71  79 CALM      30.15S
GILMER         CLOUDY    75  72  88 NE3       30.15S
MINEOLA        CLOUDY    77  73  88 CALM      30.14S
TYLER          CLOUDY    79  71  76 E5        30.13R
LONGVIEW       PTSUNNY   79  69  71 E3        30.12S
MARSHALL       PTSUNNY   78  72  80 CALM      30.14S
ATHENS         PTSUNNY   77  72  83 E6        30.11S
PALESTINE      PTSUNNY   80  73  78 E5        30.12S
JACKSONVILLE   PTSUNNY   78  72  81 E6        30.14S
HENDERSON      PTSUNNY   77  71  80 CALM      30.14S
NACOGDOCHES    MOSUNNY   81  72  74 NE6       30.11S
LUFKIN         SUNNY     84  73  69 NE5       30.10S HX  90
$$

SUPPLEMENTAL OBSERVATIONS (CENTRAL)

CITY           SKY/WX    TMP DP  RH WIND       PRES   REMARKS
LAKE TEXOMA      N/A     75  70  83 E3          N/A
CADDO GRASSLND   N/A     77  70  78 E3          N/A
PAT MAYSE LAKE   N/A     73  68  83 E2          N/A
GREENVILLE       N/A     81  72  74 E3          N/A
CEDAR HILL       N/A     82  70  65 SE2         N/A
PALESTINE        N/A     79  72  78 E5          N/A
LAKE LIMESTONE   N/A     82  73  74 E3          N/A
MCGREGOR         N/A     81  73  78 S1          N/A
TEMPLE           N/A     82  73  74 SE2         N/A
$$

SUPPLEMENTAL OBSERVATIONS (WEST)

CITY           SKY/WX    TMP DP  RH WIND       PRES   REMARKS
MILLERS CREEK    N/A     77  72  83 S7          N/A
POSSUM KINGDOM   N/A     81  66  61 SE1         N/A
LBJ GRASSLAND    N/A     81  70  69 SE3         N/A
GRANBURY         N/A     81  70  69 SE1         N/A
COMANCHE         N/A     79  75  89 S2          N/A
HAMBY            N/A     79  68  69 S2          N/A
IVIE RESERVOIR   N/A     73  70  88 E3          N/A
COLORADO BEND    N/A     75  70  83 E2          N/A
$$

SUPPLEMENTAL OBSERVATIONS (EAST)

CITY           SKY/WX    TMP DP  RH WIND       PRES   REMARKS
CLARKSVILLE      N/A     79  68  69 E2          N/A
TEXARKANA        N/A     79  68  69 N2          N/A
LINDEN           N/A     81  70  69 E1          N/A
CADDO LAKE       N/A     77  72  83 E2          N/A
GILMER           N/A     77  70  78 E3          N/A
HENDERSON        N/A     79  72  78 E6          N/A
LUFKIN           N/A     84  72  65 MISG        N/A
N SABINE NF      N/A     81  73  78 MISG        N/A
S SABINE NF      N/A     81  73  78 NE5         N/A
$$

SUPPLEMENTAL OBSERVATIONS ARE A COLLECTION OF AUTOMATED INSTRUMENTS
THAT ARE MAINTAINED BY A VARIETY OF FEDERAL AND STATE AGENCIES.
CERTAIN ELEMENTS...SUCH AS HUMIDITY VALUES AND SUSTAINED WIND
SPEEDS...MAY BE APPROXIMATED.





U.S. Dept. of Commerce
NOAA National Weather Service
1325 East West Highway
Silver Spring, MD 20910
E-mail: w-nws.webmaster@noaa.gov
Page last modified: May 16, 2007
NATIONAL WEATHER SERVICE: for Safety, for Work, for Fun - FOR LIFE